www.pogodaiklimat.ru

Погода и климат >> Архив погоды >> Украина >> Коломак


ПОГОДА в Коломаке

  • Прогноз погоды в Коломаке
  • Монитор погоды в Коломаке

АРХИВ ПОГОДЫ в Коломаке

Время (UTC), дата Ветер
(напр.,м/с)
 
Видим.   Явления Облачность Т
(С)
Тd
(С)
f
(%)
Тe
(С)
Тes
(С)
Комфортность P
(гПа)
Po
(гПа)
Тmin
(С)
Tmax
(С)
R
(мм)
R24
(мм)
S
(см)
03 13.09 Ю 1 10 км 9/0
[Ac trans]
+16.2 +7.1 55 +17 +17 1025.7 1004.4
06 13.09 Ю 1 10 км 8/0
[Ac trans]
+19.6 +6.9 44 +21 +24 комфорт 1025.9 1004.8 +16.2
09 13.09 Ю 3 10 км 6/0
[Cc]
+26.2 +5.0 26 +25 +32 комфорт 1024.7 1004.1
12 13.09 З 3 10 км 4/4 1000 м
[Cu hum]
+27.8 +3.4 21 +26 +30 жарко 1022.4 1001.9
15 13.09 З 2 10 км 3/0
[Ac trans Ci fib]
+25.8 +4.3 25 +25 +25 комфорт 1021.3 1000.7
18 13.09 Ю 2 10 км ясно +19.4 +5.3 40 +21 +21 комфорт 1021.6 1000.6 +28.5
21 13.09 ЮЗ 2 10 км 3/0
[Cc]
+17.3 +3.9 41 +18 +18 1021.0 999.8
00 14.09 З 3 10 км ясно +16.1 +3.2 42 +16 +16 1020.6 999.4
03 14.09 штиль 0 10 км ясно +11.9 +5.7 66 +12 +12 1019.9 998.4
06 14.09 СЗ 2 10 км 9/0
[Cc]
+18.0 +7.6 51 +19 +21 1019.8 998.7 +11.9
09 14.09 СЗ 4 10 км 9/6 600 м
[Cb calv Ac trans]
+23.3 +7.7 37 +24 +26 комфорт 1018.7 998.0
12 14.09 СЗ 6 10 км 10/6 600 м
[Cb calv Ac As]
+20.8 +10.1 50 +22 +23 комфорт 1019.0 998.1
15 14.09 С 5 10 км 9/9 600 м
[Cb calv]
+18.2 +4.4 40 +18 +18 1019.8 998.7
18 14.09 С 3 10 км ясно +15.3 +2.9 43 +15 +15 1021.8 1000.5 +24.4
21 14.09 С 2 10 км ясно +10.8 +2.1 55 +10 +10 1023.4 1001.7
00 15.09 З 1 10 км ясно +7.5 +2.2 69 +7 +7 1023.8 1001.8
03 15.09 З 1 10 км 1/0
[Cc]
+6.5 +2.6 76 +6 +6 1024.0 1002.0
06 15.09 С 3 10 км ясно +12.1 +2.7 53 +11 +14 1024.4 1002.8 +6.0
12 15.09 СЗ 5 10 км 8/3 600 м
[Cu hum Ci]
+20.2 -0.1 26 +20 +22 1021.1 1000.1
15 15.09 З 5 10 км 8/0
[Ci]
+19.2 -3.0 22 +19 +19 1019.8 998.8
18 15.09 З 3 10 км 4/0
[Ci]
+15.4 +0.9 37 +15 +15 1019.4 998.1 +21.0
21 15.09 З 4 10 км ясно +13.6 +1.9 45 +12 +12 1018.0 996.6
00 16.09 ЮЗ 4 10 км 3/0
[Ci fib]
+12.4 +3.2 53 +11 +11 1016.3 994.9
03 16.09 ЮЗ 4 10 км 4/0
[Ci fib]
+11.0 +3.3 59 +9 +9 1014.1 992.6
06 16.09 З 8 10 км 3/0
[Ci]
+15.9 +3.3 43 +14 +15 1012.7 991.6 +10.9
09 16.09 З 8 10 км 6/0
[Ci]
+21.6 +4.2 32 +22 +23 комфорт 1010.4 989.8
12 16.09 З 10 10 км 8/5 1000 м
[Sc Ac trans]
+24.6 +1.5 22 +23 +24 комфорт 1008.2 987.8
15 16.09 З 6 10 км 9/8 600 м
[Sc Cc]
+23.1 +5.6 32 +23 +23 комфорт 1007.3 986.8
18 16.09 СЗ 1 10 км 10/10 600 м
[Sc]
+19.5 +6.4 42 +21 +21 комфорт 1008.0 987.3 +25.6
21 16.09 З 2 10 км 9/0
[Ac trans]
+16.5 +5.0 46 +17 +17 1008.0 987.1
00 17.09 З 1 10 км 9/0
[Ac trans]
+14.5 +5.7 55 +15 +15 1007.6 986.5
03 17.09 З 2 10 км 8/0
[Ac trans Ci]
+12.2 +4.1 58 +11 +11 1007.5 986.2
06 17.09 СЗ 4 10 км 9/4 600 м
[Sc Ac trans]
+13.6 +4.6 54 +12 +13 1008.4 987.2 +11.4
09 17.09 З 6 10 км 9/0
[As op]
+17.0 +3.8 41 +16 +17 1008.1 987.2
12 17.09 З 7 10 км 8/3 1000 м
[Cu hum Ci]
+19.2 +1.8 31 +19 +20 1006.6 985.9
15 17.09 З 5 10 км 6/6 600 м
[Cu med, cong]
+18.4 +1.4 32 +18 +18 1005.8 985.0
18 17.09 З 2 10 км ясно +11.8 +3.0 55 +11 +11 1007.3 986.0 +19.8
21 17.09 Ю 1 10 км 8/0
[Cc]
+10.0 +2.8 61 +10 +10 1007.2 985.8
00 18.09 Ю 2 10 км 4/0
[Cc]
+7.5 +2.8 72 +6 +6 1005.9 984.3
03 18.09 ЮЗ 2 10 км 8/8 600 м
[Sc]
+9.5 +5.3 75 +8 +8 1003.9 982.5
06 18.09 З 6 10 км слаб. ливневой дождь 10/10 600 м
[Cb cap]
+10.6 +9.2 91 +7 +7 1004.2 982.9 +7.5 0.3
09 18.09 З 7 10 км {ливн. осадки} 9/8 600 м
[Cb calv Ac trans]
+13.8 +9.1 73 +12 +12 1002.8 981.8
12 18.09 З 10 10 км {ливн. осадки} 8/8 600 м
[Cb calv]
+14.8 0.0 36 +13 +13 1003.2 982.2
18 18.09 З 7 10 км 1/0
[Ac trans]
+8.7 +2.0 63 +5 +5 1008.8 987.3 +15.9 1
00 19.09 З 6 10 км 9/9 600 м
[Sc]
+8.0 +4.6 79 +4 +4 1012.5 990.8
12 19.09 З 7 10 км 9/9 600 м
[Cb calv]
+14.3 +1.7 42 +12 +13 1016.8 995.5
15 19.09 СЗ 3 10 км в посл. час крупа {ливн. осадки} 4/4 600 м
[Cb calv]
+11.3 +6.2 71 +10 +10 1017.3 995.8
18 19.09 З 2 10 км {ливн. осадки} ясно +6.9 +4.6 85 +5 +5 1018.5 996.6 +15.8 0.9

 

Местоположение метеостанции Коломак (Харьковская область, Украина): широта 49.85 долгота 35.23 высота над уровнем моря 178 м.

В архиве по умолчанию представлена погода в Коломаке за последнюю неделю. Архивные данные за месяц целиком и за предыдущие месяцы, начиная с января 2011 года, Вы можете получить, выбрав интересующий диапазон дат из раскрывающегося списка и нажав кнопку "Ввод!".


*Определитесь, кто Вы:
робот инопланетянин человек

Внимание! Время в таблицах - всемирное. Для получения местного времени необходимо прибавить поправку, которая равна 2 ч.

Смотрите также архив погоды в соседних городах и на ближайших метеорологических станциях:

Погода в Боходухове (Харьковская область, Украина) (44 км)
Погода в Краснограде (Харьковская область, Украина) (55 км)
Погода в Полтаве (Полтавская область, Украина) (56 км)
Погода в Харькове (Харьковская область, Украина) (66 км)
Погода в Золочеве (Львовская область, Украина) (72 км)
Погода в Лебедине (Сумская область, Украина) (97 км)
Погода в Комсомольском (Донецкая область, Украина) (98 км)
Погода в Гадяче (Полтавская область, Украина) (106 км)
Погода в Кобеляках (Полтавская область, Украина) (108 км)
Погода в Готне (Белгородская область, Россия) (112 км)

Пояснения к столбцам:

Ветер - указаны скорость ветра в м/с - средняя за 10 мин, порывы в срок и между сроками (в фигурных скобках) и направление, откуда дует ветер: С - северный, СВ - северо-восточный, В - восточный, ЮВ - юго-восточный, Ю - южный, ЮЗ - юго-западный, З - западный, СЗ - северо-западный.
Видимость - горизонтальная дальность видимости в метрах или километрах. При видимости от 1 до 10 км при отсутствии осадков обычно наблюдается дымка, при ухудшении видимости до 1 км и менее - туман. В сухую погоду видимость может ухудшаться дымом, пылью или мглою.
Явления - указаны атмосферные явления, наблюдавшиеся в срок или в последний час перед сроком; фигурными скобками обозначены явления, наблюдавшиеся между сроками (за 1-3 часа до срока); квадратными скобками обозначены град или гололедные отложения с указанием их диаметра в мм.
Облачность - указаны через наклонную черту общая и нижняя облачность в баллах и высота нижней границы облаков в метрах; квадратными скобками обозначены формы облаков: Ci - перистые, Cs - перисто-слоистые, Cc - перисто-кучевые, Ac - высококучевые, As - высокослоистые, Sc - слоисто-кучевые, Ns - слоисто-дождевые, Cu - кучевые, Cb - кучево-дождевые. Подробнее классификацию облаков см. в Атласе облаков (PDF).
T - Температура воздуха - температура, измеренная на высоте 2 м над землей.
Td - Температура точки росы - температура, при понижении до которой содержащийся в воздухе водяной пар достигнет насыщения.
f - Относительная влажность воздуха - влажноcть воздуха, измеренная на высоте 2 м над землей.
Te - Эффективная температура - температура, которую ощущает одетый по сезону человек в тени. Характеристика душности погоды. При расчете учитывается влияние влажности воздуха и скорости ветра на теплоощущения человека.
Tes - Эффективная температура на солнце - температура, которую ощущает человек, с поправкой на солнечный нагрев. Характеристика знойности погоды. Зависит от высоты солнца над горизонтом, облачности и скорости ветра. Ночью, в пасмурную погоду, а также при ветре 12 м/с и более поправка равна нулю.
P - Атмосферное давление - приведенное к уровню моря атмосферное давление.
Po - Атмосферное давление - измеренное на уровне метеостанции атмосферное давление.
Tmin - Минимальная температура - минимум температуры воздуха на высоте 2 м над землей.
Tmax - Максимальная температура - максимум температуры воздуха на высоте 2 м над землей.
R - Количество осадков - Количество выпавших осадков за период времени, мм. При наведении курсора мыши на число - период времени, за который выпало указанное количество осадков.
R24 - Количество осадков - Количество выпавших осадков за 24 часа, мм.
S - Снежный покров - Высота снежного покрова, см. При наведении курсора мыши на число - состояние снежного покрова и степень покрытия местности в баллах.